Time,TemperatureF,DewpointF,PressureIn,WindDirection,WindDirectionDegrees,WindSpeedMPH,WindSpeedGustMPH,Humidity,HourlyPrecipIn,Conditions,Clouds,dailyrainin,SoftwareType,DateUTC
2013-03-18 00:01:00,41.1,31.7,30.05,SSE,163,2.0,2.0,69,0.00,,,0.00,WeatherCatV1.10B1784,2013-03-18 07:01:00,
2013-03-18 00:06:00,41.1,32.1,30.05,SSW,201,1.0,2.0,70,0.00,,,0.00,WeatherCatV1.10B1784,2013-03-18 07:06:00,
2013-03-18 00:11:00,41.2,31.8,30.05,South,186,1.0,2.0,69,0.00,,,0.00,WeatherCatV1.10B1784,2013-03-18 07:11:00,
2013-03-18 00:16:00,41.3,31.9,30.05,SSE,164,0.0,3.0,69,0.00,,,0.00,WeatherCatV1.10B1784,2013-03-18 07:16:00,
2013-03-18 00:21:00,41.3,31.9,30.05,SW,219,2.0,4.0,69,0.00,,,0.00,WeatherCatV1.10B1784,2013-03-18 07:21:00,
2013-03-18 00:26:00,41.4,32.0,30.06,SE,132,1.0,2.0,69,0.00,,,0.00,WeatherCatV1.10B1784,2013-03-18 07:26:00,
2013-03-18 00:31:00,41.9,32.5,30.06,SSW,198,2.0,3.0,69,0.00,,,0.00,WeatherCatV1.10B1784,2013-03-18 07:31:00,
2013-03-18 00:36:00,41.8,32.7,30.06,SSE,152,3.0,3.0,70,0.00,,,0.00,WeatherCatV1.10B1784,2013-03-18 07:36:00,
2013-03-18 00:41:00,41.6,34.3,30.06,South,169,7.0,11.0,75,0.00,,,0.01,WeatherCatV1.10B1784,2013-03-18 07:41:00,
2013-03-18 00:46:00,41.3,34.6,30.05,SSE,153,1.0,2.0,77,0.07,,,0.02,WeatherCatV1.10B1784,2013-03-18 07:46:00,
2013-03-18 00:51:00,40.8,34.5,30.05,ESE,115,1.0,3.0,78,0.07,,,0.02,WeatherCatV1.10B1784,2013-03-18 07:51:00,
2013-03-18 00:56:00,40.3,34.6,30.05,SSE,165,2.0,4.0,80,0.05,,,0.02,WeatherCatV1.10B1784,2013-03-18 07:56:00,
2013-03-18 01:01:00,39.9,34.6,30.04,SSW,193,2.0,2.0,81,0.03,,,0.02,WeatherCatV1.10B1784,2013-03-18 08:01:00,
2013-03-18 01:06:00,39.5,34.5,30.04,South,179,2.0,4.0,82,0.00,,,0.02,WeatherCatV1.10B1784,2013-03-18 08:06:00,
2013-03-18 01:11:00,39.2,34.5,30.04,SSW,205,2.0,3.0,83,0.00,,,0.02,WeatherCatV1.10B1784,2013-03-18 08:11:00,
2013-03-18 01:16:00,39.0,34.6,30.03,SE,124,0.0,1.0,84,0.00,,,0.02,WeatherCatV1.10B1784,2013-03-18 08:16:00,
2013-03-18 01:21:00,39.0,34.9,30.04,SW,233,2.0,4.0,85,0.00,,,0.02,WeatherCatV1.10B1784,2013-03-18 08:21:00,
2013-03-18 01:26:00,39.1,35.0,30.03,SW,214,3.0,4.0,85,0.00,,,0.02,WeatherCatV1.10B1784,2013-03-18 08:26:00,
2013-03-18 01:31:00,39.3,35.2,30.03,SSW,193,4.0,5.0,85,0.00,,,0.02,WeatherCatV1.10B1784,2013-03-18 08:31:00,
2013-03-18 01:36:00,39.6,35.5,30.03,SW,228,5.0,9.0,85,0.00,,,0.02,WeatherCatV1.10B1784,2013-03-18 08:36:00,
2013-03-18 01:41:00,39.8,35.4,30.03,South,174,3.0,7.0,84,0.00,,,0.02,WeatherCatV1.10B1784,2013-03-18 08:41:00,
2013-03-18 01:46:00,39.8,35.4,30.03,SW,219,5.0,6.0,84,0.00,,,0.02,WeatherCatV1.10B1784,2013-03-18 08:46:00,
2013-03-18 01:51:00,39.7,35.3,30.03,SSW,195,2.0,6.0,84,0.00,,,0.02,WeatherCatV1.10B1784,2013-03-18 08:51:00,
2013-03-18 01:56:00,39.7,35.3,30.02,SSW,201,5.0,8.0,84,0.00,,,0.02,WeatherCatV1.10B1784,2013-03-18 08:56:00,
2013-03-18 02:01:00,39.6,35.2,30.02,SW,222,3.0,6.0,84,0.00,,,0.02,WeatherCatV1.10B1784,2013-03-18 09:01:00,
2013-03-18 02:06:00,39.5,35.1,30.02,SSE,148,2.0,6.0,84,0.00,,,0.02,WeatherCatV1.10B1784,2013-03-18 09:06:00,
2013-03-18 02:11:00,39.4,35.0,30.02,South,181,2.0,4.0,84,0.00,,,0.02,WeatherCatV1.10B1784,2013-03-18 09:11:00,
2013-03-18 02:16:00,39.4,35.0,30.02,South,181,2.0,2.0,84,0.00,,,0.02,WeatherCatV1.10B1784,2013-03-18 09:16:00,
2013-03-18 02:21:00,39.2,34.8,30.02,SE,134,1.0,1.0,84,0.00,,,0.02,WeatherCatV1.10B1784,2013-03-18 09:21:00,
2013-03-18 02:26:00,39.1,35.0,30.02,SE,136,2.0,5.0,85,0.00,,,0.02,WeatherCatV1.10B1784,2013-03-18 09:26:00,
2013-03-18 02:31:00,39.1,35.0,30.02,East,79,0.0,3.0,85,0.00,,,0.02,WeatherCatV1.10B1784,2013-03-18 09:31:00,
2013-03-18 02:36:00,39.0,34.9,30.02,East,84,2.0,3.0,85,0.00,,,0.02,WeatherCatV1.10B1784,2013-03-18 09:36:00,
2013-03-18 02:41:00,38.9,34.8,30.02,SE,127,0.0,2.0,85,0.00,,,0.02,WeatherCatV1.10B1784,2013-03-18 09:41:00,
2013-03-18 02:46:00,38.8,34.7,30.02,SE,136,1.0,2.0,85,0.00,,,0.02,WeatherCatV1.10B1784,2013-03-18 09:46:00,
2013-03-18 02:51:00,38.7,34.3,30.02,SE,137,1.0,2.0,84,0.00,,,0.02,WeatherCatV1.10B1784,2013-03-18 09:51:00,
2013-03-18 02:56:00,38.5,34.4,30.02,ESE,103,2.0,2.0,85,0.00,,,0.02,WeatherCatV1.10B1784,2013-03-18 09:56:00,
2013-03-18 03:01:00,38.4,34.3,30.01,SE,139,3.0,4.0,85,0.00,,,0.02,WeatherCatV1.10B1784,2013-03-18 10:01:00,
2013-03-18 03:06:00,38.6,34.8,30.01,ESE,116,2.0,2.0,86,0.00,,,0.02,WeatherCatV1.10B1784,2013-03-18 10:06:00,
2013-03-18 03:11:00,38.7,34.9,30.01,SSW,193,3.0,3.0,86,0.00,,,0.02,WeatherCatV1.10B1784,2013-03-18 10:11:00,
2013-03-18 03:16:00,38.7,34.9,30.01,South,174,3.0,3.0,86,0.00,,,0.02,WeatherCatV1.10B1784,2013-03-18 10:16:00,
2013-03-18 03:21:00,38.9,35.1,30.02,South,172,3.0,5.0,86,0.00,,,0.02,WeatherCatV1.10B1784,2013-03-18 10:21:00,
2013-03-18 03:26:00,39.1,35.3,30.02,South,180,4.0,5.0,86,0.00,,,0.02,WeatherCatV1.10B1784,2013-03-18 10:26:00,
2013-03-18 03:31:00,39.3,35.2,30.01,SSE,167,2.0,4.0,85,0.00,,,0.02,WeatherCatV1.10B1784,2013-03-18 10:31:00,
2013-03-18 03:36:00,39.3,35.2,30.01,WNW,285,2.0,2.0,85,0.00,,,0.02,WeatherCatV1.10B1784,2013-03-18 10:36:00,
2013-03-18 03:41:00,39.3,35.2,30.01,WSW,246,0.0,1.0,85,0.00,,,0.02,WeatherCatV1.10B1784,2013-03-18 10:41:00,
2013-03-18 03:46:00,39.1,35.0,30.01,South,176,3.0,5.0,85,0.00,,,0.02,WeatherCatV1.10B1784,2013-03-18 10:46:00,
2013-03-18 03:51:00,39.0,34.9,30.01,South,191,2.0,3.0,85,0.00,,,0.02,WeatherCatV1.10B1784,2013-03-18 10:51:00,
2013-03-18 03:56:00,39.0,34.9,30.01,SSW,210,1.0,2.0,85,0.00,,,0.02,WeatherCatV1.10B1784,2013-03-18 10:56:00,
2013-03-18 04:01:00,39.0,34.9,30.01,SW,222,1.0,2.0,85,0.00,,,0.02,WeatherCatV1.10B1784,2013-03-18 11:01:00,
2013-03-18 04:06:00,39.1,35.0,30.01,SSW,207,0.0,2.0,85,0.00,,,0.02,WeatherCatV1.10B1784,2013-03-18 11:06:00,
2013-03-18 04:11:00,39.0,34.6,30.01,SSW,207,0.0,1.0,84,0.00,,,0.02,WeatherCatV1.10B1784,2013-03-18 11:11:00,
2013-03-18 04:16:00,38.6,34.5,30.02,SSW,206,0.0,1.0,85,0.00,,,0.02,WeatherCatV1.10B1784,2013-03-18 11:16:00,
2013-03-18 04:21:00,38.5,34.7,30.02,SSE,153,1.0,1.0,86,0.00,,,0.02,WeatherCatV1.10B1784,2013-03-18 11:21:00,
2013-03-18 04:26:00,38.5,34.7,30.02,SW,224,3.0,3.0,86,0.00,,,0.02,WeatherCatV1.10B1784,2013-03-18 11:26:00,
2013-03-18 04:31:00,38.6,34.5,30.01,SW,233,3.0,3.0,85,0.00,,,0.02,WeatherCatV1.10B1784,2013-03-18 11:31:00,
2013-03-18 04:36:00,38.8,34.4,30.02,SW,228,2.0,3.0,84,0.00,,,0.02,WeatherCatV1.10B1784,2013-03-18 11:36:00,
2013-03-18 04:41:00,38.9,34.2,30.02,WSW,249,1.0,2.0,83,0.00,,,0.02,WeatherCatV1.10B1784,2013-03-18 11:41:00,
2013-03-18 04:46:00,39.1,34.4,30.02,SW,235,1.0,2.0,83,0.00,,,0.02,WeatherCatV1.10B1784,2013-03-18 11:46:00,
2013-03-18 04:51:00,39.1,34.1,30.02,West,264,0.0,1.0,82,0.00,,,0.02,WeatherCatV1.10B1784,2013-03-18 11:51:00,
2013-03-18 04:56:00,39.2,34.2,30.02,WSW,253,2.0,4.0,82,0.00,,,0.02,WeatherCatV1.10B1784,2013-03-18 11:56:00,
2013-03-18 05:01:00,39.1,34.1,30.02,SW,236,3.0,4.0,82,0.00,,,0.02,WeatherCatV1.10B1784,2013-03-18 12:01:00,
2013-03-18 05:06:00,39.3,34.0,30.02,WSW,240,1.0,4.0,81,0.00,,,0.02,WeatherCatV1.10B1784,2013-03-18 12:06:00,
2013-03-18 05:11:00,39.7,34.4,30.03,West,260,2.0,5.0,81,0.00,,,0.02,WeatherCatV1.10B1784,2013-03-18 12:11:00,
2013-03-18 05:16:00,40.3,34.3,30.02,WNW,287,2.0,4.0,79,0.00,,,0.02,WeatherCatV1.10B1784,2013-03-18 12:16:00,
2013-03-18 05:21:00,40.6,34.3,30.03,WNW,287,3.0,3.0,78,0.00,,,0.02,WeatherCatV1.10B1784,2013-03-18 12:21:00,
2013-03-18 05:26:00,40.7,34.4,30.03,West,281,3.0,4.0,78,0.00,,,0.02,WeatherCatV1.10B1784,2013-03-18 12:26:00,
2013-03-18 05:31:00,40.7,34.4,30.04,WNW,297,1.0,5.0,78,0.00,,,0.02,WeatherCatV1.10B1784,2013-03-18 12:31:00,
2013-03-18 05:36:00,40.7,34.7,30.04,WNW,291,3.0,4.0,79,0.00,,,0.02,WeatherCatV1.10B1784,2013-03-18 12:36:00,
2013-03-18 05:41:00,40.8,35.4,30.04,WNW,289,4.0,13.0,81,0.00,,,0.02,WeatherCatV1.10B1784,2013-03-18 12:41:00,
2013-03-18 05:46:00,40.7,34.7,30.05,West,271,6.0,11.0,79,0.00,,,0.02,WeatherCatV1.10B1784,2013-03-18 12:46:00,
2013-03-18 05:51:00,40.5,35.1,30.05,West,273,4.0,9.0,81,0.00,,,0.02,WeatherCatV1.10B1784,2013-03-18 12:51:00,
2013-03-18 05:56:00,40.3,34.9,30.05,WNW,285,5.0,5.0,81,0.00,,,0.02,WeatherCatV1.10B1784,2013-03-18 12:56:00,
2013-03-18 06:01:00,39.9,34.9,30.05,WNW,289,7.0,11.0,82,0.00,,,0.02,WeatherCatV1.10B1784,2013-03-18 13:01:00,
2013-03-18 06:06:00,39.7,35.0,30.05,West,278,5.0,11.0,83,0.00,,,0.02,WeatherCatV1.10B1784,2013-03-18 13:06:00,
2013-03-18 06:11:00,39.5,35.1,30.06,West,271,7.0,12.0,84,0.00,,,0.02,WeatherCatV1.10B1784,2013-03-18 13:11:00,
2013-03-18 06:16:00,39.4,35.3,30.06,NW,314,4.0,6.0,85,0.00,,,0.02,WeatherCatV1.10B1784,2013-03-18 13:16:00,
2013-03-18 06:21:00,39.4,35.3,30.06,West,274,6.0,8.0,85,0.00,,,0.02,WeatherCatV1.10B1784,2013-03-18 13:21:00,
2013-03-18 06:26:00,39.8,36.0,30.07,West,278,5.0,15.0,86,0.00,,,0.02,WeatherCatV1.10B1784,2013-03-18 13:26:00,
2013-03-18 06:31:00,40.0,35.9,30.06,WNW,297,10.0,10.0,85,0.00,,,0.02,WeatherCatV1.10B1784,2013-03-18 13:31:00,
2013-03-18 06:36:00,40.3,35.9,30.07,West,271,9.0,13.0,84,0.00,,,0.02,WeatherCatV1.10B1784,2013-03-18 13:36:00,
2013-03-18 06:41:00,40.5,36.1,30.07,West,278,5.0,16.0,84,0.00,,,0.02,WeatherCatV1.10B1784,2013-03-18 13:41:00,
2013-03-18 06:46:00,40.4,35.7,30.07,WNW,292,5.0,10.0,83,0.00,,,0.02,WeatherCatV1.10B1784,2013-03-18 13:46:00,
2013-03-18 06:51:00,40.3,35.6,30.07,WSW,255,9.0,10.0,83,0.00,,,0.02,WeatherCatV1.10B1784,2013-03-18 13:51:00,
2013-03-18 06:56:00,39.9,35.2,30.07,WNW,288,3.0,5.0,83,0.00,,,0.02,WeatherCatV1.10B1784,2013-03-18 13:56:00,
2013-03-18 07:01:00,39.5,34.8,30.07,West,277,3.0,10.0,83,0.00,,,0.02,WeatherCatV1.10B1784,2013-03-18 14:01:00,
2013-03-18 07:06:00,39.2,34.8,30.08,West,268,9.0,9.0,84,0.00,,,0.02,WeatherCatV1.10B1784,2013-03-18 14:06:00,
2013-03-18 07:11:00,39.2,35.1,30.08,WNW,293,2.0,9.0,85,0.00,,,0.02,WeatherCatV1.10B1784,2013-03-18 14:11:00,
2013-03-18 07:16:00,39.1,35.0,30.08,SW,236,3.0,7.0,85,0.00,,,0.02,WeatherCatV1.10B1784,2013-03-18 14:16:00,
2013-03-18 07:21:00,39.0,35.2,30.08,WNW,290,3.0,5.0,86,0.00,,,0.02,WeatherCatV1.10B1784,2013-03-18 14:21:00,
2013-03-18 07:26:00,39.0,35.2,30.08,WNW,288,4.0,5.0,86,0.00,,,0.02,WeatherCatV1.10B1784,2013-03-18 14:26:00,
2013-03-18 07:31:00,38.9,35.1,30.09,West,266,6.0,7.0,86,0.00,,,0.02,WeatherCatV1.10B1784,2013-03-18 14:31:00,
2013-03-18 07:36:00,38.8,35.3,30.09,WSW,255,2.0,3.0,87,0.00,,,0.02,WeatherCatV1.10B1784,2013-03-18 14:36:00,
2013-03-18 07:41:00,38.8,35.3,30.09,WNW,285,3.0,9.0,87,0.00,,,0.02,WeatherCatV1.10B1784,2013-03-18 14:41:00,
2013-03-18 07:46:00,38.8,35.3,30.09,West,278,5.0,9.0,87,0.00,,,0.02,WeatherCatV1.10B1784,2013-03-18 14:46:00,
2013-03-18 07:51:00,38.8,35.3,30.09,West,278,5.0,5.0,87,0.00,,,0.02,WeatherCatV1.10B1784,2013-03-18 14:51:00,
2013-03-18 07:56:00,38.9,35.4,30.10,West,275,5.0,8.0,87,0.00,,,0.02,WeatherCatV1.10B1784,2013-03-18 14:56:00,
2013-03-18 08:01:00,39.2,35.7,30.10,WNW,288,3.0,8.0,87,0.00,,,0.02,WeatherCatV1.10B1784,2013-03-18 15:01:00,
2013-03-18 08:06:00,39.4,35.6,30.10,SW,236,6.0,8.0,86,0.00,,,0.02,WeatherCatV1.10B1784,2013-03-18 15:06:00,
2013-03-18 08:11:00,39.7,35.9,30.10,West,278,4.0,5.0,86,0.00,,,0.02,WeatherCatV1.10B1784,2013-03-18 15:11:00,
2013-03-18 08:16:00,39.9,36.1,30.10,WNW,288,3.0,7.0,86,0.00,,,0.02,WeatherCatV1.10B1784,2013-03-18 15:16:00,
2013-03-18 08:21:00,40.0,36.2,30.11,WNW,295,5.0,8.0,86,0.00,,,0.02,WeatherCatV1.10B1784,2013-03-18 15:21:00,
2013-03-18 08:26:00,40.2,36.4,30.11,NW,310,6.0,6.0,86,0.00,,,0.02,WeatherCatV1.10B1784,2013-03-18 15:26:00,
2013-03-18 08:31:00,40.4,36.5,30.11,WNW,291,5.0,6.0,86,0.00,,,0.02,WeatherCatV1.10B1784,2013-03-18 15:31:00,
2013-03-18 08:36:00,40.5,36.4,30.11,WNW,295,5.0,6.0,85,0.00,,,0.02,WeatherCatV1.10B1784,2013-03-18 15:36:00,
2013-03-18 08:41:00,40.6,36.7,30.11,West,278,4.0,7.0,86,0.00,,,0.02,WeatherCatV1.10B1784,2013-03-18 15:41:00,
2013-03-18 08:46:00,40.7,36.5,30.11,WNW,291,7.0,7.0,85,0.00,,,0.02,WeatherCatV1.10B1784,2013-03-18 15:46:00,
2013-03-18 08:51:00,40.7,36.5,30.11,NW,304,5.0,7.0,85,0.00,,,0.02,WeatherCatV1.10B1784,2013-03-18 15:51:00,
2013-03-18 08:56:00,40.9,36.7,30.11,WNW,298,6.0,10.0,85,0.00,,,0.02,WeatherCatV1.10B1784,2013-03-18 15:56:00,
2013-03-18 09:01:00,40.9,36.7,30.11,WNW,294,5.0,11.0,85,0.00,,,0.02,WeatherCatV1.10B1784,2013-03-18 16:01:00,
2013-03-18 09:06:00,41.0,37.1,30.11,NW,305,7.0,10.0,86,0.00,,,0.02,WeatherCatV1.10B1784,2013-03-18 16:06:00,
2013-03-18 09:11:00,41.0,36.8,30.12,WNW,302,7.0,13.0,85,0.00,,,0.02,WeatherCatV1.10B1784,2013-03-18 16:11:00,
2013-03-18 09:16:00,41.2,37.0,30.12,WNW,301,5.0,9.0,85,0.00,,,0.02,WeatherCatV1.10B1784,2013-03-18 16:16:00,
2013-03-18 09:21:00,41.3,37.1,30.13,WNW,291,4.0,11.0,85,0.00,,,0.02,WeatherCatV1.10B1784,2013-03-18 16:21:00,
2013-03-18 09:26:00,41.5,37.0,30.13,WNW,301,7.0,10.0,84,0.00,,,0.02,WeatherCatV1.10B1784,2013-03-18 16:26:00,
2013-03-18 09:31:00,41.5,37.0,30.13,WNW,296,8.0,12.0,84,0.00,,,0.02,WeatherCatV1.10B1784,2013-03-18 16:31:00,
2013-03-18 09:36:00,41.6,37.1,30.13,WNW,293,5.0,10.0,84,0.00,,,0.02,WeatherCatV1.10B1784,2013-03-18 16:36:00,
2013-03-18 09:41:00,41.7,37.2,30.14,WNW,295,11.0,12.0,84,0.00,,,0.02,WeatherCatV1.10B1784,2013-03-18 16:41:00,
2013-03-18 09:46:00,41.9,37.4,30.14,WNW,298,8.0,10.0,84,0.00,,,0.02,WeatherCatV1.10B1784,2013-03-18 16:46:00,
2013-03-18 09:51:00,41.9,36.8,30.14,West,278,6.0,9.0,82,0.00,,,0.02,WeatherCatV1.10B1784,2013-03-18 16:51:00,
2013-03-18 09:56:00,42.2,37.1,30.14,NW,307,7.0,10.0,82,0.00,,,0.02,WeatherCatV1.10B1784,2013-03-18 16:56:00,
2013-03-18 10:01:00,42.2,37.1,30.14,NNW,329,4.0,12.0,82,0.00,,,0.02,WeatherCatV1.10B1784,2013-03-18 17:01:00,
2013-03-18 10:06:00,42.2,37.1,30.14,WNW,302,7.0,14.0,82,0.00,,,0.02,WeatherCatV1.10B1784,2013-03-18 17:06:00,
2013-03-18 10:11:00,42.3,37.5,30.15,NNW,343,6.0,13.0,83,0.00,,,0.02,WeatherCatV1.10B1784,2013-03-18 17:11:00,
2013-03-18 10:16:00,42.4,37.6,30.15,NW,305,3.0,8.0,83,0.00,,,0.02,WeatherCatV1.10B1784,2013-03-18 17:16:00,
2013-03-18 10:21:00,42.4,37.3,30.15,NW,319,6.0,15.0,82,0.00,,,0.02,WeatherCatV1.10B1784,2013-03-18 17:21:00,
2013-03-18 10:26:00,42.5,37.4,30.15,NW,314,5.0,11.0,82,0.00,,,0.02,WeatherCatV1.10B1784,2013-03-18 17:26:00,
2013-03-18 10:31:00,42.5,37.4,30.15,NNW,328,8.0,11.0,82,0.00,,,0.02,WeatherCatV1.10B1784,2013-03-18 17:31:00,
2013-03-18 10:36:00,42.4,36.7,30.15,WNW,292,4.0,11.0,80,0.00,,,0.02,WeatherCatV1.10B1784,2013-03-18 17:36:00,
2013-03-18 10:41:00,42.5,37.1,30.15,WNW,294,10.0,10.0,81,0.00,,,0.02,WeatherCatV1.10B1784,2013-03-18 17:41:00,
2013-03-18 10:46:00,42.6,36.9,30.15,NW,319,6.0,11.0,80,0.00,,,0.02,WeatherCatV1.10B1784,2013-03-18 17:46:00,
2013-03-18 10:51:00,42.7,36.6,30.15,NNW,328,7.0,12.0,79,0.00,,,0.02,WeatherCatV1.10B1784,2013-03-18 17:51:00,
2013-03-18 10:56:00,42.6,36.6,30.15,NW,316,10.0,11.0,79,0.00,,,0.02,WeatherCatV1.10B1784,2013-03-18 17:56:00,
2013-03-18 11:01:00,42.7,36.3,30.16,North,1,10.0,10.0,78,0.00,,,0.02,WeatherCatV1.10B1784,2013-03-18 18:01:00,
2013-03-18 11:06:00,42.7,36.0,30.16,NW,307,5.0,9.0,77,0.00,,,0.02,WeatherCatV1.10B1784,2013-03-18 18:06:00,
2013-03-18 11:11:00,42.9,36.8,30.16,NNE,23,5.0,15.0,79,0.00,,,0.02,WeatherCatV1.10B1784,2013-03-18 18:11:00,
2013-03-18 11:16:00,42.9,36.8,30.16,North,0,10.0,12.0,79,0.00,,,0.02,WeatherCatV1.10B1784,2013-03-18 18:16:00,
2013-03-18 11:21:00,42.9,37.2,30.16,NW,316,5.0,9.0,80,0.00,,,0.02,WeatherCatV1.10B1784,2013-03-18 18:21:00,
2013-03-18 11:26:00,42.8,36.7,30.16,NW,326,8.0,16.0,79,0.00,,,0.02,WeatherCatV1.10B1784,2013-03-18 18:26:00,
2013-03-18 11:31:00,42.7,35.7,30.16,NW,311,12.0,17.0,76,0.00,,,0.02,WeatherCatV1.10B1784,2013-03-18 18:31:00,
2013-03-18 11:36:00,42.7,35.7,30.16,NW,319,14.0,18.0,76,0.00,,,0.02,WeatherCatV1.10B1784,2013-03-18 18:36:00,
2013-03-18 11:41:00,42.7,36.3,30.16,NNW,335,11.0,18.0,78,0.00,,,0.02,WeatherCatV1.10B1784,2013-03-18 18:41:00,
2013-03-18 11:46:00,42.7,36.0,30.16,NNW,330,15.0,18.0,77,0.00,,,0.02,WeatherCatV1.10B1784,2013-03-18 18:46:00,
2013-03-18 11:51:00,42.8,36.4,30.16,NW,307,9.0,15.0,78,0.00,,,0.02,WeatherCatV1.10B1784,2013-03-18 18:51:00,
2013-03-18 11:56:00,42.8,36.7,30.17,NW,314,9.0,18.0,79,0.00,,,0.02,WeatherCatV1.10B1784,2013-03-18 18:56:00,
2013-03-18 12:01:00,42.8,36.7,30.17,WNW,297,12.0,15.0,79,0.00,,,0.02,WeatherCatV1.10B1784,2013-03-18 19:01:00,
2013-03-18 12:07:00,42.7,37.3,30.17,NW,304,13.0,16.0,81,0.00,,,0.02,WeatherCatV1.10B1784,2013-03-18 19:07:00,
2013-03-18 12:12:00,42.6,36.9,30.17,NW,310,11.0,16.0,80,0.00,,,0.02,WeatherCatV1.10B1784,2013-03-18 19:12:00,
2013-03-18 12:17:00,42.6,37.2,30.17,NW,325,8.0,17.0,81,0.00,,,0.02,WeatherCatV1.10B1784,2013-03-18 19:17:00,
2013-03-18 12:22:00,42.6,37.2,30.17,NW,311,14.0,16.0,81,0.00,,,0.02,WeatherCatV1.10B1784,2013-03-18 19:22:00,
2013-03-18 12:27:00,42.7,37.3,30.17,WNW,302,6.0,11.0,81,0.00,,,0.02,WeatherCatV1.10B1784,2013-03-18 19:27:00,
2013-03-18 12:32:00,42.9,36.8,30.17,NW,307,8.0,14.0,79,0.00,,,0.02,WeatherCatV1.10B1784,2013-03-18 19:32:00,
2013-03-18 12:37:00,43.0,36.6,30.18,NW,319,11.0,14.0,78,0.00,,,0.02,WeatherCatV1.10B1784,2013-03-18 19:37:00,
2013-03-18 12:42:00,42.9,35.9,30.18,West,270,3.0,15.0,76,0.00,,,0.02,WeatherCatV1.10B1784,2013-03-18 19:42:00,
2013-03-18 12:46:00,43.3,36.6,30.18,NW,319,5.0,12.0,77,0.00,,,0.02,WeatherCatV1.10B1784,2013-03-18 19:46:00,
2013-03-18 12:51:00,43.3,35.6,30.18,NW,307,9.0,15.0,74,0.00,,,0.02,WeatherCatV1.10B1784,2013-03-18 19:51:00,
2013-03-18 12:56:00,43.3,35.6,30.18,WNW,298,11.0,15.0,74,0.00,,,0.02,WeatherCatV1.10B1784,2013-03-18 19:56:00,
2013-03-18 13:02:00,43.2,35.5,30.18,NW,321,13.0,17.0,74,0.00,,,0.02,WeatherCatV1.10B1784,2013-03-18 20:02:00,
2013-03-18 13:07:00,43.3,34.9,30.18,NW,314,7.0,16.0,72,0.00,,,0.02,WeatherCatV1.10B1784,2013-03-18 20:07:00,
2013-03-18 13:12:00,43.2,35.1,30.18,NW,310,15.0,16.0,73,0.00,,,0.02,WeatherCatV1.10B1784,2013-03-18 20:12:00,
2013-03-18 13:17:00,43.2,35.1,30.18,WNW,300,12.0,15.0,73,0.00,,,0.02,WeatherCatV1.10B1784,2013-03-18 20:17:00,
2013-03-18 13:22:00,43.3,35.2,30.18,NW,307,13.0,17.0,73,0.00,,,0.02,WeatherCatV1.10B1784,2013-03-18 20:22:00,
2013-03-18 13:27:00,43.5,36.1,30.18,NW,325,11.0,15.0,75,0.00,,,0.02,WeatherCatV1.10B1784,2013-03-18 20:27:00,
2013-03-18 13:32:00,43.5,35.8,30.18,NNW,328,14.0,16.0,74,0.00,,,0.02,WeatherCatV1.10B1784,2013-03-18 20:32:00,
2013-03-18 13:37:00,43.6,35.5,30.18,NW,316,16.0,16.0,73,0.00,,,0.02,WeatherCatV1.10B1784,2013-03-18 20:37:00,
2013-03-18 13:42:00,43.6,35.2,30.18,NW,312,10.0,16.0,72,0.00,,,0.02,WeatherCatV1.10B1784,2013-03-18 20:42:00,
2013-03-18 13:47:00,43.8,35.7,30.18,NNW,332,10.0,14.0,73,0.00,,,0.02,WeatherCatV1.10B1784,2013-03-18 20:47:00,
2013-03-18 13:52:00,43.9,35.1,30.18,NW,323,12.0,14.0,71,0.00,,,0.02,WeatherCatV1.10B1784,2013-03-18 20:52:00,
2013-03-18 13:57:00,44.0,36.3,30.19,West,278,10.0,15.0,74,0.00,,,0.02,WeatherCatV1.10B1784,2013-03-18 20:57:00,
2013-03-18 14:02:00,43.9,35.5,30.19,NW,307,11.0,12.0,72,0.00,,,0.02,WeatherCatV1.10B1784,2013-03-18 21:02:00,
2013-03-18 14:07:00,44.2,36.1,30.19,WNW,300,4.0,11.0,73,0.00,,,0.02,WeatherCatV1.10B1784,2013-03-18 21:07:00,
2013-03-18 14:12:00,44.3,35.9,30.19,WNW,302,7.0,12.0,72,0.00,,,0.02,WeatherCatV1.10B1784,2013-03-18 21:12:00,
2013-03-18 14:17:00,44.4,35.9,30.19,NW,310,11.0,11.0,72,0.00,,,0.02,WeatherCatV1.10B1784,2013-03-18 21:17:00,
2013-03-18 14:22:00,44.8,36.3,30.19,West,279,2.0,7.0,72,0.00,,,0.02,WeatherCatV1.10B1784,2013-03-18 21:22:00,
2013-03-18 14:27:00,44.9,35.7,30.19,NW,308,8.0,12.0,70,0.00,,,0.02,WeatherCatV1.10B1784,2013-03-18 21:27:00,
2013-03-18 14:32:00,44.8,36.0,30.19,NNW,332,3.0,11.0,71,0.00,,,0.02,WeatherCatV1.10B1784,2013-03-18 21:32:00,
2013-03-18 14:37:00,45.1,36.3,30.19,NNW,339,5.0,7.0,71,0.00,,,0.02,WeatherCatV1.10B1784,2013-03-18 21:37:00,
2013-03-18 14:42:00,45.3,36.5,30.19,WNW,302,4.0,8.0,71,0.00,,,0.02,WeatherCatV1.10B1784,2013-03-18 21:42:00,
2013-03-18 14:47:00,45.2,35.6,30.19,NW,314,6.0,12.0,69,0.00,,,0.02,WeatherCatV1.10B1784,2013-03-18 21:47:00,
2013-03-18 14:52:00,45.0,35.8,30.19,WNW,302,3.0,11.0,70,0.00,,,0.02,WeatherCatV1.10B1784,2013-03-18 21:52:00,
2013-03-18 14:57:00,45.0,35.8,30.18,NW,307,9.0,11.0,70,0.00,,,0.02,WeatherCatV1.10B1784,2013-03-18 21:57:00,
2013-03-18 15:02:00,44.9,35.7,30.19,NW,305,8.0,11.0,70,0.00,,,0.02,WeatherCatV1.10B1784,2013-03-18 22:02:00,
2013-03-18 15:07:00,44.9,35.7,30.19,WNW,296,4.0,11.0,70,0.00,,,0.02,WeatherCatV1.10B1784,2013-03-18 22:07:00,
2013-03-18 15:12:00,45.1,36.3,30.19,NW,309,9.0,9.0,71,0.00,,,0.02,WeatherCatV1.10B1784,2013-03-18 22:12:00,
2013-03-18 15:17:00,45.2,36.4,30.19,West,279,6.0,10.0,71,0.00,,,0.02,WeatherCatV1.10B1784,2013-03-18 22:17:00,
2013-03-18 15:22:00,45.2,34.9,30.19,NNW,333,6.0,12.0,67,0.00,,,0.02,WeatherCatV1.10B1784,2013-03-18 22:22:00,
2013-03-18 15:27:00,45.4,35.5,30.19,NW,311,7.0,10.0,68,0.00,,,0.02,WeatherCatV1.10B1784,2013-03-18 22:27:00,
2013-03-18 15:32:00,45.5,35.6,30.19,NW,308,4.0,8.0,68,0.00,,,0.02,WeatherCatV1.10B1784,2013-03-18 22:32:00,
2013-03-18 15:37:00,45.9,36.3,30.19,NNW,335,6.0,7.0,69,0.00,,,0.02,WeatherCatV1.10B1784,2013-03-18 22:37:00,
2013-03-18 15:42:00,46.1,36.1,30.19,NW,322,8.0,8.0,68,0.00,,,0.02,WeatherCatV1.10B1784,2013-03-18 22:42:00,
2013-03-18 15:47:00,46.1,36.1,30.19,NW,316,4.0,10.0,68,0.00,,,0.02,WeatherCatV1.10B1784,2013-03-18 22:47:00,
2013-03-18 15:52:00,46.3,36.3,30.19,NW,319,4.0,6.0,68,0.00,,,0.02,WeatherCatV1.10B1784,2013-03-18 22:52:00,
2013-03-18 15:57:00,46.4,36.0,30.19,North,4,7.0,8.0,67,0.00,,,0.02,WeatherCatV1.10B1784,2013-03-18 22:57:00,
2013-03-18 16:02:00,46.1,35.8,30.18,NNW,330,6.0,7.0,67,0.00,,,0.02,WeatherCatV1.10B1784,2013-03-18 23:02:00,
2013-03-18 16:07:00,46.0,36.4,30.19,NW,326,6.0,8.0,69,0.00,,,0.02,WeatherCatV1.10B1784,2013-03-18 23:07:00,
2013-03-18 16:12:00,46.3,36.7,30.19,WNW,285,2.0,6.0,69,0.00,,,0.02,WeatherCatV1.10B1784,2013-03-18 23:12:00,
2013-03-18 16:17:00,46.5,36.1,30.19,NNW,333,2.0,8.0,67,0.00,,,0.02,WeatherCatV1.10B1784,2013-03-18 23:17:00,
2013-03-18 16:22:00,46.4,35.3,30.20,WNW,302,5.0,9.0,65,0.00,,,0.02,WeatherCatV1.10B1784,2013-03-18 23:22:00,
2013-03-18 16:27:00,46.5,35.4,30.19,WNW,290,1.0,7.0,65,0.00,,,0.02,WeatherCatV1.10B1784,2013-03-18 23:27:00,
2013-03-18 16:32:00,46.4,36.0,30.19,WNW,295,5.0,7.0,67,0.00,,,0.02,WeatherCatV1.10B1784,2013-03-18 23:32:00,
2013-03-18 16:37:00,46.8,36.4,30.19,WNW,302,5.0,6.0,67,0.00,,,0.02,WeatherCatV1.10B1784,2013-03-18 23:37:00,
2013-03-18 16:42:00,46.8,36.4,30.19,WNW,295,2.0,6.0,67,0.00,,,0.02,WeatherCatV1.10B1784,2013-03-18 23:42:00,
2013-03-18 16:47:00,46.7,36.0,30.19,NW,312,6.0,7.0,66,0.00,,,0.02,WeatherCatV1.10B1784,2013-03-18 23:47:00,
2013-03-18 16:52:00,46.4,35.3,30.20,NW,323,4.0,7.0,65,0.00,,,0.02,WeatherCatV1.10B1784,2013-03-18 23:52:00,
2013-03-18 16:57:00,46.4,34.9,30.19,WNW,297,5.0,7.0,64,0.00,,,0.02,WeatherCatV1.10B1784,2013-03-18 23:57:00,
2013-03-18 17:02:00,46.4,35.7,30.19,NW,316,6.0,8.0,66,0.00,,,0.02,WeatherCatV1.10B1784,2013-03-19 00:02:00,
2013-03-18 17:07:00,46.5,36.5,30.19,NW,305,6.0,6.0,68,0.00,,,0.02,WeatherCatV1.10B1784,2013-03-19 00:07:00,
2013-03-18 17:12:00,46.6,35.9,30.19,NW,311,7.0,8.0,66,0.00,,,0.02,WeatherCatV1.10B1784,2013-03-19 00:12:00,
2013-03-18 17:17:00,46.4,36.0,30.19,NNW,332,5.0,8.0,67,0.00,,,0.02,WeatherCatV1.10B1784,2013-03-19 00:17:00,
2013-03-18 17:22:00,46.5,36.1,30.19,NW,309,5.0,7.0,67,0.00,,,0.02,WeatherCatV1.10B1784,2013-03-19 00:22:00,
2013-03-18 17:27:00,46.6,36.6,30.20,NW,312,8.0,8.0,68,0.00,,,0.02,WeatherCatV1.10B1784,2013-03-19 00:27:00,
2013-03-18 17:32:00,46.6,34.7,30.19,NW,314,7.0,7.0,63,0.00,,,0.02,WeatherCatV1.10B1784,2013-03-19 00:32:00,
2013-03-18 17:37:00,46.6,35.1,30.19,NW,311,6.0,7.0,64,0.00,,,0.02,WeatherCatV1.10B1784,2013-03-19 00:37:00,
2013-03-18 17:42:00,46.7,36.0,30.19,WNW,301,3.0,5.0,66,0.00,,,0.02,WeatherCatV1.10B1784,2013-03-19 00:42:00,
2013-03-18 17:47:00,46.8,35.7,30.20,WNW,291,3.0,4.0,65,0.00,,,0.02,WeatherCatV1.10B1784,2013-03-19 00:47:00,
2013-03-18 17:52:00,47.3,36.5,30.19,WNW,297,2.0,3.0,66,0.00,,,0.02,WeatherCatV1.10B1784,2013-03-19 00:52:00,
2013-03-18 17:57:00,47.4,35.8,30.20,WNW,284,1.0,3.0,64,0.00,,,0.02,WeatherCatV1.10B1784,2013-03-19 00:57:00,
2013-03-18 18:02:00,47.8,35.8,30.19,NW,311,3.0,4.0,63,0.00,,,0.02,WeatherCatV1.10B1784,2013-03-19 01:02:00,
2013-03-18 18:07:00,47.5,35.1,30.19,NW,311,3.0,4.0,62,0.00,,,0.02,WeatherCatV1.10B1784,2013-03-19 01:07:00,
2013-03-18 18:12:00,47.1,34.8,30.19,NW,307,4.0,5.0,62,0.00,,,0.02,WeatherCatV1.10B1784,2013-03-19 01:12:00,
2013-03-18 18:17:00,47.1,35.9,30.20,West,281,4.0,4.0,65,0.00,,,0.02,WeatherCatV1.10B1784,2013-03-19 01:17:00,
2013-03-18 18:22:00,47.0,35.1,30.20,NW,316,5.0,5.0,63,0.00,,,0.02,WeatherCatV1.10B1784,2013-03-19 01:22:00,
2013-03-18 18:27:00,46.9,36.9,30.20,WNW,293,3.0,5.0,68,0.00,,,0.02,WeatherCatV1.10B1784,2013-03-19 01:27:00,
2013-03-18 18:32:00,46.6,36.6,30.20,WNW,295,2.0,4.0,68,0.00,,,0.02,WeatherCatV1.10B1784,2013-03-19 01:32:00,
2013-03-18 18:37:00,46.2,35.9,30.20,WNW,297,1.0,4.0,67,0.00,,,0.02,WeatherCatV1.10B1784,2013-03-19 01:37:00,
2013-03-18 18:42:00,45.9,36.3,30.20,NW,307,2.0,2.0,69,0.00,,,0.02,WeatherCatV1.10B1784,2013-03-19 01:42:00,
2013-03-18 18:47:00,45.8,35.1,30.20,WNW,288,1.0,2.0,66,0.00,,,0.02,WeatherCatV1.10B1784,2013-03-19 01:47:00,
2013-03-18 18:51:00,46.0,34.5,30.20,WNW,283,1.0,1.0,64,0.00,,,0.02,WeatherCatV1.10B1784,2013-03-19 01:51:00,
2013-03-18 18:56:00,46.0,33.7,30.20,WNW,287,0.0,0.0,62,0.00,,,0.02,WeatherCatV1.10B1784,2013-03-19 01:56:00,
2013-03-18 19:01:00,45.9,33.6,30.20,WNW,286,0.0,1.0,62,0.00,,,0.02,WeatherCatV1.10B1784,2013-03-19 02:01:00,
2013-03-18 19:06:00,45.7,33.4,30.20,West,260,0.0,1.0,62,0.00,,,0.02,WeatherCatV1.10B1784,2013-03-19 02:06:00,
2013-03-18 19:11:00,45.6,32.5,30.20,WSW,246,0.0,2.0,60,0.00,,,0.02,WeatherCatV1.10B1784,2013-03-19 02:11:00,
2013-03-18 19:16:00,45.5,32.4,30.20,West,263,1.0,2.0,60,0.00,,,0.02,WeatherCatV1.10B1784,2013-03-19 02:16:00,
2013-03-18 19:21:00,45.4,32.3,30.20,SW,225,0.0,1.0,60,0.00,,,0.02,WeatherCatV1.10B1784,2013-03-19 02:21:00,
2013-03-18 19:26:00,45.2,32.6,30.20,SW,225,0.0,0.0,61,0.00,,,0.02,WeatherCatV1.10B1784,2013-03-19 02:26:00,
2013-03-18 19:31:00,45.0,32.4,30.20,West,268,1.0,2.0,61,0.00,,,0.02,WeatherCatV1.10B1784,2013-03-19 02:31:00,
2013-03-18 19:37:00,44.6,33.2,30.20,South,177,2.0,3.0,64,0.00,,,0.02,WeatherCatV1.10B1784,2013-03-19 02:37:00,
2013-03-18 19:42:00,44.3,33.3,30.20,South,185,2.0,2.0,65,0.00,,,0.02,WeatherCatV1.10B1784,2013-03-19 02:42:00,
2013-03-18 19:46:00,44.2,32.8,30.20,South,174,1.0,2.0,64,0.00,,,0.02,WeatherCatV1.10B1784,2013-03-19 02:46:00,
2013-03-18 19:51:00,44.1,32.7,30.21,SSW,193,2.0,2.0,64,0.00,,,0.02,WeatherCatV1.10B1784,2013-03-19 02:51:00,
2013-03-18 19:56:00,44.1,32.7,30.21,South,188,1.0,2.0,64,0.00,,,0.02,WeatherCatV1.10B1784,2013-03-19 02:56:00,
2013-03-18 20:01:00,44.0,33.0,30.21,SSW,192,2.0,2.0,65,0.00,,,0.02,WeatherCatV1.10B1784,2013-03-19 03:01:00,
2013-03-18 20:06:00,43.9,32.9,30.21,SSW,197,3.0,3.0,65,0.00,,,0.02,WeatherCatV1.10B1784,2013-03-19 03:06:00,
2013-03-18 20:11:00,43.9,33.3,30.21,SW,226,2.0,3.0,66,0.00,,,0.02,WeatherCatV1.10B1784,2013-03-19 03:11:00,
2013-03-18 20:16:00,43.9,32.9,30.21,SW,214,3.0,3.0,65,0.00,,,0.02,WeatherCatV1.10B1784,2013-03-19 03:16:00,
2013-03-18 20:21:00,43.9,32.9,30.22,SW,226,3.0,3.0,65,0.00,,,0.02,WeatherCatV1.10B1784,2013-03-19 03:21:00,
2013-03-18 20:26:00,44.0,33.0,30.22,SSW,201,2.0,2.0,65,0.00,,,0.02,WeatherCatV1.10B1784,2013-03-19 03:26:00,
2013-03-18 20:31:00,43.9,32.9,30.22,SW,215,1.0,2.0,65,0.00,,,0.02,WeatherCatV1.10B1784,2013-03-19 03:31:00,
2013-03-18 20:36:00,43.7,32.7,30.22,SSW,198,2.0,2.0,65,0.00,,,0.02,WeatherCatV1.10B1784,2013-03-19 03:36:00,
2013-03-18 20:41:00,43.6,33.0,30.22,SSW,193,2.0,3.0,66,0.00,,,0.02,WeatherCatV1.10B1784,2013-03-19 03:41:00,
2013-03-18 20:46:00,43.5,32.5,30.22,South,188,2.0,2.0,65,0.00,,,0.02,WeatherCatV1.10B1784,2013-03-19 03:46:00,
2013-03-18 20:51:00,43.6,32.6,30.22,SSE,163,1.0,2.0,65,0.00,,,0.02,WeatherCatV1.10B1784,2013-03-19 03:51:00,
2013-03-18 20:56:00,43.3,33.1,30.22,SW,236,1.0,1.0,67,0.00,,,0.02,WeatherCatV1.10B1784,2013-03-19 03:56:00,
2013-03-18 21:00:00,43.1,33.3,30.22,SW,236,0.0,0.0,68,0.00,,,0.02,WeatherCatV1.10B1784,2013-03-19 04:00:00,
2013-03-18 21:05:00,42.8,33.3,30.22,SSW,193,1.0,1.0,69,0.00,,,0.02,WeatherCatV1.10B1784,2013-03-19 04:05:00,
2013-03-18 21:10:00,42.6,33.2,30.22,SSW,203,2.0,2.0,69,0.00,,,0.02,WeatherCatV1.10B1784,2013-03-19 04:10:00,
2013-03-18 21:15:00,42.8,33.0,30.22,South,179,2.0,2.0,68,0.00,,,0.02,WeatherCatV1.10B1784,2013-03-19 04:15:00,
2013-03-18 21:20:00,42.7,32.9,30.22,SSE,153,2.0,4.0,68,0.00,,,0.02,WeatherCatV1.10B1784,2013-03-19 04:20:00,
2013-03-18 21:25:00,42.6,32.8,30.23,South,181,2.0,2.0,68,0.00,,,0.02,WeatherCatV1.10B1784,2013-03-19 04:25:00,
2013-03-18 21:30:00,42.7,32.9,30.23,SSE,168,1.0,2.0,68,0.00,,,0.02,WeatherCatV1.10B1784,2013-03-19 04:30:00,
2013-03-18 21:35:00,42.7,32.5,30.23,SSE,163,1.0,2.0,67,0.00,,,0.02,WeatherCatV1.10B1784,2013-03-19 04:35:00,
2013-03-18 21:40:00,42.7,33.2,30.23,SSE,161,0.0,1.0,69,0.00,,,0.02,WeatherCatV1.10B1784,2013-03-19 04:40:00,
2013-03-18 21:41:00,42.7,33.2,30.23,SE,133,0.0,1.0,69,0.00,,,0.02,WeatherCatV1.10B1784,2013-03-19 04:41:00,
2013-03-18 21:46:00,42.6,33.2,30.23,SSW,210,1.0,2.0,69,0.00,,,0.02,WeatherCatV1.10B1784,2013-03-19 04:46:00,
2013-03-18 21:51:00,42.8,33.3,30.23,SSW,195,1.0,1.0,69,0.00,,,0.02,WeatherCatV1.10B1784,2013-03-19 04:51:00,
2013-03-18 21:56:00,42.9,33.1,30.23,SSW,205,2.0,2.0,68,0.00,,,0.02,WeatherCatV1.10B1784,2013-03-19 04:56:00,
2013-03-18 22:01:00,43.1,32.9,30.23,South,172,2.0,2.0,67,0.00,,,0.02,WeatherCatV1.10B1784,2013-03-19 05:01:00,
2013-03-18 22:06:00,43.2,33.0,30.23,SW,214,4.0,4.0,67,0.00,,,0.02,WeatherCatV1.10B1784,2013-03-19 05:06:00,
2013-03-18 22:11:00,43.1,32.5,30.23,SSW,198,3.0,4.0,66,0.00,,,0.02,WeatherCatV1.10B1784,2013-03-19 05:11:00,
2013-03-18 22:16:00,43.1,32.5,30.23,SSW,195,3.0,5.0,66,0.00,,,0.02,WeatherCatV1.10B1784,2013-03-19 05:16:00,
2013-03-18 22:21:00,42.9,32.3,30.23,SW,214,3.0,4.0,66,0.00,,,0.02,WeatherCatV1.10B1784,2013-03-19 05:21:00,
2013-03-18 22:26:00,42.8,32.2,30.23,SSW,205,2.0,4.0,66,0.00,,,0.02,WeatherCatV1.10B1784,2013-03-19 05:26:00,
2013-03-18 22:31:00,42.7,32.1,30.23,SSE,165,3.0,3.0,66,0.00,,,0.02,WeatherCatV1.10B1784,2013-03-19 05:31:00,
2013-03-18 22:36:00,42.6,32.0,30.23,South,188,1.0,4.0,66,0.00,,,0.02,WeatherCatV1.10B1784,2013-03-19 05:36:00,
2013-03-18 22:41:00,42.6,32.4,30.23,South,180,1.0,2.0,67,0.00,,,0.02,WeatherCatV1.10B1784,2013-03-19 05:41:00,
2013-03-18 22:46:00,42.6,32.4,30.23,South,171,2.0,4.0,67,0.00,,,0.02,WeatherCatV1.10B1784,2013-03-19 05:46:00,
2013-03-18 22:51:00,42.5,32.3,30.23,South,191,3.0,3.0,67,0.00,,,0.02,WeatherCatV1.10B1784,2013-03-19 05:51:00,
2013-03-18 22:56:00,42.3,32.5,30.23,South,186,2.0,2.0,68,0.00,,,0.02,WeatherCatV1.10B1784,2013-03-19 05:56:00,
2013-03-18 23:01:00,41.9,32.5,30.23,SE,142,1.0,1.0,69,0.00,,,0.02,WeatherCatV1.10B1784,2013-03-19 06:01:00,
2013-03-18 23:06:00,40.9,32.2,30.23,SE,139,1.0,2.0,71,0.00,,,0.02,WeatherCatV1.10B1784,2013-03-19 06:06:00,
2013-03-18 23:11:00,40.1,32.5,30.23,SSE,158,1.0,1.0,74,0.00,,,0.02,WeatherCatV1.10B1784,2013-03-19 06:11:00,
2013-03-18 23:16:00,39.6,32.3,30.23,SE,138,1.0,2.0,75,0.00,,,0.02,WeatherCatV1.10B1784,2013-03-19 06:16:00,
2013-03-18 23:21:00,39.2,32.3,30.23,SSE,161,2.0,2.0,76,0.00,,,0.02,WeatherCatV1.10B1784,2013-03-19 06:21:00,
2013-03-18 23:26:00,39.0,32.4,30.23,SSE,160,3.0,3.0,77,0.00,,,0.02,WeatherCatV1.10B1784,2013-03-19 06:26:00,
2013-03-18 23:31:00,38.9,32.3,30.23,SSE,161,1.0,2.0,77,0.00,,,0.02,WeatherCatV1.10B1784,2013-03-19 06:31:00,
2013-03-18 23:36:00,38.6,32.0,30.23,SSE,159,2.0,2.0,77,0.00,,,0.02,WeatherCatV1.10B1784,2013-03-19 06:36:00,
2013-03-18 23:41:00,38.4,32.2,30.23,South,169,2.0,2.0,78,0.00,,,0.02,WeatherCatV1.10B1784,2013-03-19 06:41:00,
2013-03-18 23:46:00,38.1,31.9,30.23,SSE,156,1.0,1.0,78,0.00,,,0.02,WeatherCatV1.10B1784,2013-03-19 06:46:00,
2013-03-18 23:51:00,37.8,31.9,30.23,SSE,161,1.0,1.0,79,0.00,,,0.02,WeatherCatV1.10B1784,2013-03-19 06:51:00,
2013-03-18 23:56:00,37.8,32.2,30.23,SSE,153,0.0,1.0,80,0.00,,,0.02,WeatherCatV1.10B1784,2013-03-19 06:56:00,